Time,TemperatureF,DewpointF,PressureIn,WindDirection,WindDirectionDegrees,WindSpeedMPH,WindSpeedGustMPH,Humidity,HourlyPrecipIn,Conditions,Clouds,dailyrainin,SoftwareType,DateUTC
2013-03-23 00:02:00,20.0,14.0,30.04,SSW,204,0.0,0.0,77,0.00,,,0.00,,2013-03-23 05:02:00,
2013-03-23 00:12:00,20.0,14.0,30.04,SSW,204,0.0,0.0,77,0.00,,,0.00,,2013-03-23 05:12:00,
2013-03-23 00:22:00,20.0,14.0,30.04,SSW,203,0.0,0.0,77,0.00,,,0.00,,2013-03-23 05:22:00,
2013-03-23 00:32:00,19.0,13.0,30.04,SSW,203,0.0,0.0,78,0.00,,,0.00,,2013-03-23 05:32:00,
2013-03-23 00:42:00,19.0,13.0,30.04,SSW,203,0.0,0.0,78,0.00,,,0.00,,2013-03-23 05:42:00,
2013-03-23 00:52:00,19.0,13.0,30.04,SSW,203,0.0,0.0,78,0.00,,,0.00,,2013-03-23 05:52:00,
2013-03-23 01:02:00,19.0,14.0,30.04,SSW,204,0.0,0.0,79,0.00,,,0.00,,2013-03-23 06:02:00,
2013-03-23 01:12:00,19.0,14.0,30.04,SSW,204,0.0,0.0,79,0.00,,,0.00,,2013-03-23 06:12:00,
2013-03-23 01:22:00,19.0,14.0,30.04,SSW,204,0.0,0.0,79,0.00,,,0.00,,2013-03-23 06:22:00,
2013-03-23 01:32:00,19.0,14.0,30.04,SSW,203,0.0,0.0,80,0.00,,,0.00,,2013-03-23 06:32:00,
2013-03-23 01:42:00,19.0,14.0,30.04,SSW,203,0.0,0.0,80,0.00,,,0.00,,2013-03-23 06:42:00,
2013-03-23 01:52:00,19.0,14.0,30.04,SSW,204,0.0,0.0,80,0.00,,,0.00,,2013-03-23 06:52:00,
2013-03-23 02:02:00,19.0,14.0,30.04,SSW,203,0.0,0.0,81,0.00,,,0.00,,2013-03-23 07:02:00,
2013-03-23 02:12:00,19.0,14.0,30.04,SSW,203,0.0,0.0,81,0.00,,,0.00,,2013-03-23 07:12:00,
2013-03-23 02:22:00,18.0,13.0,30.04,SSW,204,0.0,0.0,81,0.00,,,0.00,,2013-03-23 07:22:00,
2013-03-23 02:32:00,18.0,13.0,30.04,SSW,204,0.0,0.0,81,0.00,,,0.00,,2013-03-23 07:32:00,
2013-03-23 02:42:00,18.0,13.0,30.04,SSW,204,0.0,0.0,81,0.00,,,0.00,,2013-03-23 07:42:00,
2013-03-23 02:52:00,18.0,13.0,30.04,SSW,203,0.0,0.0,81,0.00,,,0.00,,2013-03-23 07:52:00,
2013-03-23 03:02:00,18.0,13.0,30.04,SSW,203,0.0,0.0,82,0.00,,,0.00,,2013-03-23 08:02:00,
2013-03-23 03:12:00,18.0,13.0,30.04,SSW,203,0.0,0.0,82,0.00,,,0.00,,2013-03-23 08:12:00,
2013-03-23 03:22:00,18.0,13.0,30.03,SSW,204,0.0,0.0,82,0.00,,,0.00,,2013-03-23 08:22:00,
2013-03-23 03:32:00,18.0,13.0,30.03,SSW,204,0.0,0.0,82,0.00,,,0.00,,2013-03-23 08:32:00,
2013-03-23 03:42:00,18.0,13.0,30.03,SSW,204,0.0,0.0,82,0.00,,,0.00,,2013-03-23 08:42:00,
2013-03-23 03:52:00,18.0,14.0,30.04,SSW,203,0.0,0.0,83,0.00,,,0.00,,2013-03-23 08:52:00,
2013-03-23 04:02:00,18.0,14.0,30.04,SSW,204,0.0,0.0,83,0.00,,,0.00,,2013-03-23 09:02:00,
2013-03-23 04:12:00,18.0,14.0,30.04,SSW,204,0.0,0.0,83,0.00,,,0.00,,2013-03-23 09:12:00,
2013-03-23 04:22:00,18.0,14.0,30.04,SSW,204,0.0,0.0,83,0.00,,,0.00,,2013-03-23 09:22:00,
2013-03-23 04:33:00,18.0,14.0,30.04,SSW,204,0.0,0.0,83,0.00,,,0.00,,2013-03-23 09:33:00,
2013-03-23 04:42:00,18.0,14.0,30.04,SSW,204,0.0,0.0,83,0.00,,,0.00,,2013-03-23 09:42:00,
2013-03-23 04:53:00,18.0,14.0,30.03,SSW,204,0.0,0.0,83,0.00,,,0.00,,2013-03-23 09:53:00,
2013-03-23 05:03:00,18.0,14.0,30.03,SSW,204,0.0,1.0,83,0.00,,,0.00,,2013-03-23 10:03:00,
2013-03-23 05:13:00,18.0,14.0,30.03,SSW,204,0.0,1.0,83,0.00,,,0.00,,2013-03-23 10:13:00,
2013-03-23 05:23:00,18.0,14.0,30.03,SSW,204,0.0,0.0,83,0.00,,,0.00,,2013-03-23 10:23:00,
2013-03-23 05:33:00,18.0,14.0,30.03,SSW,203,0.0,0.0,83,0.00,,,0.00,,2013-03-23 10:33:00,
2013-03-23 05:42:00,18.0,14.0,30.03,SSW,203,0.0,0.0,83,0.00,,,0.00,,2013-03-23 10:42:00,
2013-03-23 05:52:00,18.0,14.0,30.03,SSW,203,0.0,0.0,83,0.00,,,0.00,,2013-03-23 10:52:00,
2013-03-23 06:03:00,18.0,14.0,30.04,SSW,204,0.0,0.0,83,0.00,,,0.00,,2013-03-23 11:03:00,
2013-03-23 06:12:00,18.0,14.0,30.04,SSW,204,0.0,0.0,83,0.00,,,0.00,,2013-03-23 11:12:00,
2013-03-23 06:22:00,18.0,14.0,30.04,SSW,204,0.0,0.0,83,0.00,,,0.00,,2013-03-23 11:22:00,
2013-03-23 06:32:00,17.0,13.0,30.06,SSW,203,0.0,0.0,83,0.00,,,0.00,,2013-03-23 11:32:00,
2013-03-23 06:42:00,17.0,13.0,30.06,SSW,203,0.0,0.0,83,0.00,,,0.00,,2013-03-23 11:42:00,
2013-03-23 06:52:00,17.0,13.0,30.06,SSW,204,0.0,0.0,83,0.00,,,0.00,,2013-03-23 11:52:00,
2013-03-23 07:02:00,17.0,13.0,30.07,SSW,204,0.0,0.0,84,0.00,,,0.00,,2013-03-23 12:02:00,
2013-03-23 07:13:00,17.0,13.0,30.07,SSW,204,0.0,0.0,84,0.00,,,0.00,,2013-03-23 12:13:00,
2013-03-23 07:22:00,17.0,13.0,30.06,SSW,203,0.0,0.0,84,0.00,,,0.00,,2013-03-23 12:22:00,
2013-03-23 07:33:00,17.0,13.0,30.07,SSW,204,0.0,0.0,84,0.00,,,0.00,,2013-03-23 12:33:00,
2013-03-23 07:42:00,17.0,13.0,30.07,SSW,204,0.0,0.0,84,0.00,,,0.00,,2013-03-23 12:42:00,
2013-03-23 07:53:00,18.0,14.0,30.07,SSW,204,0.0,0.0,85,0.00,,,0.00,,2013-03-23 12:53:00,
2013-03-23 08:02:00,19.0,15.0,30.09,SSW,203,0.0,0.0,85,0.00,,,0.00,,2013-03-23 13:02:00,
2013-03-23 08:12:00,19.0,15.0,30.09,SSW,203,0.0,0.0,85,0.00,,,0.00,,2013-03-23 13:12:00,
2013-03-23 08:22:00,19.0,15.0,30.08,SSW,204,0.0,1.0,85,0.00,,,0.00,,2013-03-23 13:22:00,
2013-03-23 08:32:00,20.0,16.0,30.09,SSW,207,0.0,2.0,84,0.00,,,0.00,,2013-03-23 13:32:00,
2013-03-23 08:42:00,20.0,16.0,30.09,SSW,207,0.0,2.0,84,0.00,,,0.00,,2013-03-23 13:42:00,
2013-03-23 08:53:00,21.0,17.0,30.10,WSW,253,0.0,4.0,83,0.00,,,0.00,,2013-03-23 13:53:00,
2013-03-23 09:03:00,22.0,17.0,30.10,WSW,254,1.0,2.0,82,0.00,,,0.00,,2013-03-23 14:03:00,
2013-03-23 09:12:00,22.0,17.0,30.10,WSW,254,1.0,2.0,82,0.00,,,0.00,,2013-03-23 14:12:00,
2013-03-23 09:22:00,23.0,18.0,30.11,WSW,257,1.0,4.0,80,0.00,,,0.00,,2013-03-23 14:22:00,
2013-03-23 09:32:00,24.0,18.0,30.10,WSW,257,0.0,1.0,77,0.00,,,0.00,,2013-03-23 14:32:00,
2013-03-23 09:42:00,24.0,18.0,30.10,WSW,257,0.0,1.0,77,0.00,,,0.00,,2013-03-23 14:42:00,
2013-03-23 09:53:00,26.0,19.0,30.10,WSW,257,0.0,1.0,75,0.00,,,0.00,,2013-03-23 14:53:00,
2013-03-23 10:03:00,27.0,19.0,30.10,West,263,0.0,3.0,71,0.00,,,0.00,,2013-03-23 15:03:00,
2013-03-23 10:12:00,27.0,19.0,30.10,West,263,0.0,3.0,71,0.00,,,0.00,,2013-03-23 15:12:00,
2013-03-23 10:22:00,28.0,19.0,30.10,West,263,2.0,3.0,69,0.00,,,0.00,,2013-03-23 15:22:00,
2013-03-23 10:33:00,29.0,19.0,30.11,West,262,1.0,5.0,65,0.00,,,0.00,,2013-03-23 15:33:00,
2013-03-23 10:43:00,29.0,19.0,30.11,West,262,1.0,5.0,65,0.00,,,0.00,,2013-03-23 15:43:00,
2013-03-23 10:53:00,30.0,19.0,30.09,WSW,251,0.0,5.0,63,0.00,,,0.00,,2013-03-23 15:53:00,
2013-03-23 11:03:00,32.0,19.0,30.10,South,188,3.0,5.0,58,0.00,,,0.00,,2013-03-23 16:03:00,
2013-03-23 11:12:00,32.0,19.0,30.10,South,188,3.0,5.0,58,0.00,,,0.00,,2013-03-23 16:12:00,
2013-03-23 11:23:00,32.0,19.0,30.11,WSW,258,2.0,5.0,57,0.00,,,0.00,,2013-03-23 16:23:00,
2013-03-23 11:32:00,32.0,19.0,30.11,SW,227,2.0,6.0,57,0.00,,,0.00,,2013-03-23 16:32:00,
2013-03-23 11:43:00,32.0,19.0,30.11,SW,227,2.0,6.0,57,0.00,,,0.00,,2013-03-23 16:43:00,
2013-03-23 11:53:00,33.0,19.0,30.11,WSW,241,1.0,6.0,57,0.00,,,0.00,,2013-03-23 16:53:00,
2013-03-23 12:02:00,34.0,20.0,30.11,West,262,1.0,6.0,56,0.00,,,0.00,,2013-03-23 17:02:00,
2013-03-23 12:12:00,34.0,20.0,30.10,NNE,32,4.0,7.0,55,0.00,,,0.00,,2013-03-23 17:12:00,
2013-03-23 12:22:00,34.0,20.0,30.10,NNE,32,4.0,7.0,55,0.00,,,0.00,,2013-03-23 17:22:00,
2013-03-23 12:32:00,34.0,20.0,30.10,East,86,2.0,8.0,55,0.00,,,0.00,,2013-03-23 17:32:00,
2013-03-23 12:42:00,34.0,20.0,30.10,East,86,2.0,8.0,55,0.00,,,0.00,,2013-03-23 17:42:00,
2013-03-23 12:53:00,34.0,20.0,30.10,NNE,15,3.0,5.0,55,0.00,,,0.00,,2013-03-23 17:53:00,
2013-03-23 13:03:00,34.0,20.0,30.10,ENE,71,1.0,6.0,55,0.00,,,0.00,,2013-03-23 18:03:00,
2013-03-23 13:12:00,34.0,20.0,30.10,ENE,71,1.0,6.0,55,0.00,,,0.00,,2013-03-23 18:12:00,
2013-03-23 13:22:00,36.0,22.0,30.09,ENE,74,2.0,5.0,57,0.00,,,0.00,,2013-03-23 18:22:00,
2013-03-23 13:32:00,35.0,20.0,30.09,ENE,59,5.0,9.0,55,0.00,,,0.00,,2013-03-23 18:32:00,
2013-03-23 13:42:00,35.0,20.0,30.09,ENE,59,5.0,9.0,55,0.00,,,0.00,,2013-03-23 18:42:00,
2013-03-23 13:53:00,34.0,20.0,30.09,NE,50,4.0,9.0,56,0.00,,,0.00,,2013-03-23 18:53:00,
2013-03-23 14:02:00,35.0,21.0,30.08,NE,49,2.0,9.0,56,0.00,,,0.00,,2013-03-23 19:02:00,
2013-03-23 14:12:00,35.0,21.0,30.08,NE,49,2.0,9.0,56,0.00,,,0.00,,2013-03-23 19:12:00,
2013-03-23 14:22:00,35.0,21.0,30.08,NE,48,5.0,8.0,56,0.00,,,0.00,,2013-03-23 19:22:00,
2013-03-23 14:32:00,35.0,20.0,30.08,NE,43,3.0,9.0,54,0.00,,,0.00,,2013-03-23 19:32:00,
2013-03-23 14:42:00,35.0,20.0,30.08,NE,43,3.0,9.0,54,0.00,,,0.00,,2013-03-23 19:42:00,
2013-03-23 14:53:00,35.0,20.0,30.08,NE,52,6.0,10.0,54,0.00,,,0.00,,2013-03-23 19:53:00,
2013-03-23 15:02:00,35.0,20.0,30.07,NNE,25,4.0,8.0,54,0.00,,,0.00,,2013-03-23 20:02:00,
2013-03-23 15:12:00,35.0,20.0,30.07,NNE,25,4.0,8.0,54,0.00,,,0.00,,2013-03-23 20:12:00,
2013-03-23 15:22:00,34.0,20.0,30.08,NNE,13,1.0,10.0,55,0.00,,,0.00,,2013-03-23 20:22:00,
2013-03-23 15:32:00,34.0,20.0,30.08,NW,311,3.0,7.0,55,0.00,,,0.00,,2013-03-23 20:32:00,
2013-03-23 15:42:00,34.0,20.0,30.08,NW,311,3.0,7.0,55,0.00,,,0.00,,2013-03-23 20:42:00,
2013-03-23 15:53:00,34.0,20.0,30.08,NE,44,2.0,6.0,56,0.00,,,0.00,,2013-03-23 20:53:00,
2013-03-23 16:02:00,34.0,20.0,30.07,NNE,24,1.0,8.0,55,0.00,,,0.00,,2013-03-23 21:02:00,
2013-03-23 16:12:00,34.0,20.0,30.07,NNE,24,1.0,8.0,55,0.00,,,0.00,,2013-03-23 21:12:00,
2013-03-23 16:22:00,35.0,20.0,30.07,NNE,19,3.0,6.0,55,0.00,,,0.00,,2013-03-23 21:22:00,
2013-03-23 16:33:00,34.0,19.0,30.06,NE,51,5.0,8.0,54,0.00,,,0.00,,2013-03-23 21:33:00,
2013-03-23 16:43:00,34.0,19.0,30.06,NE,51,5.0,8.0,54,0.00,,,0.00,,2013-03-23 21:43:00,
2013-03-23 16:54:00,34.0,20.0,30.06,East,80,3.0,8.0,55,0.00,,,0.00,,2013-03-23 21:54:00,
2013-03-23 17:02:00,34.0,20.0,30.06,East,89,0.0,6.0,56,0.00,,,0.00,,2013-03-23 22:02:00,
2013-03-23 17:12:00,34.0,20.0,30.06,East,89,0.0,6.0,56,0.00,,,0.00,,2013-03-23 22:12:00,
2013-03-23 17:23:00,34.0,19.0,30.06,NNE,16,4.0,6.0,54,0.00,,,0.00,,2013-03-23 22:23:00,
2013-03-23 17:33:00,34.0,20.0,30.05,NE,52,1.0,6.0,55,0.00,,,0.00,,2013-03-23 22:33:00,
2013-03-23 17:42:00,34.0,20.0,30.05,NE,52,1.0,6.0,55,0.00,,,0.00,,2013-03-23 22:42:00,
2013-03-23 17:53:00,34.0,20.0,30.04,NE,51,4.0,6.0,56,0.00,,,0.00,,2013-03-23 22:53:00,
2013-03-23 18:02:00,33.0,19.0,30.04,ENE,69,4.0,7.0,57,0.00,,,0.00,,2013-03-23 23:02:00,
2013-03-23 18:12:00,33.0,19.0,30.04,ENE,69,4.0,7.0,57,0.00,,,0.00,,2013-03-23 23:12:00,
2013-03-23 18:22:00,33.0,20.0,30.04,NE,38,5.0,8.0,58,0.00,,,0.00,,2013-03-23 23:22:00,
2013-03-23 18:32:00,33.0,20.0,30.04,NE,55,3.0,10.0,59,0.00,,,0.00,,2013-03-23 23:32:00,
2013-03-23 18:42:00,33.0,20.0,30.04,NE,55,3.0,10.0,59,0.00,,,0.00,,2013-03-23 23:42:00,
2013-03-23 18:52:00,32.0,20.0,30.04,NNE,33,3.0,7.0,60,0.00,,,0.00,,2013-03-23 23:52:00,
2013-03-23 19:02:00,32.0,20.0,30.03,NE,51,3.0,6.0,61,0.00,,,0.00,,2013-03-24 00:02:00,
2013-03-23 19:12:00,32.0,20.0,30.03,NE,51,3.0,6.0,61,0.00,,,0.00,,2013-03-24 00:12:00,
2013-03-23 19:22:00,31.0,20.0,30.03,NNE,19,1.0,6.0,63,0.00,,,0.00,,2013-03-24 00:22:00,
2013-03-23 19:32:00,30.0,20.0,30.04,NNE,17,1.0,2.0,65,0.00,,,0.00,,2013-03-24 00:32:00,
2013-03-23 19:42:00,30.0,20.0,30.04,NNE,17,1.0,2.0,65,0.00,,,0.00,,2013-03-24 00:42:00,
2013-03-23 19:52:00,30.0,20.0,30.04,NE,35,0.0,4.0,66,0.00,,,0.00,,2013-03-24 00:52:00,
2013-03-23 20:02:00,29.0,19.0,30.04,NE,34,1.0,4.0,67,0.00,,,0.00,,2013-03-24 01:02:00,
2013-03-23 20:12:00,29.0,19.0,30.04,NE,34,1.0,4.0,67,0.00,,,0.00,,2013-03-24 01:12:00,
2013-03-23 20:22:00,29.0,20.0,30.04,NNE,33,2.0,4.0,68,0.00,,,0.00,,2013-03-24 01:22:00,
2013-03-23 20:32:00,29.0,20.0,30.05,NE,42,0.0,4.0,69,0.00,,,0.00,,2013-03-24 01:32:00,
2013-03-23 20:42:00,29.0,20.0,30.05,NE,42,0.0,4.0,69,0.00,,,0.00,,2013-03-24 01:42:00,
2013-03-23 20:53:00,29.0,20.0,30.05,NE,34,0.0,5.0,69,0.00,,,0.00,,2013-03-24 01:53:00,
2013-03-23 21:02:00,28.0,20.0,30.04,North,360,0.0,4.0,71,0.00,,,0.00,,2013-03-24 02:02:00,
2013-03-23 21:12:00,28.0,20.0,30.04,North,360,0.0,4.0,71,0.00,,,0.00,,2013-03-24 02:12:00,
2013-03-23 21:22:00,28.0,20.0,30.06,NNE,17,0.0,4.0,71,0.00,,,0.00,,2013-03-24 02:22:00,
2013-03-23 21:32:00,28.0,20.0,30.06,NNE,18,0.0,4.0,72,0.00,,,0.00,,2013-03-24 02:32:00,
2013-03-23 21:42:00,28.0,20.0,30.06,NNE,18,0.0,4.0,72,0.00,,,0.00,,2013-03-24 02:42:00,
2013-03-23 21:52:00,28.0,20.0,30.06,NNE,18,0.0,3.0,73,0.00,,,0.00,,2013-03-24 02:52:00,
2013-03-23 22:02:00,27.0,20.0,30.05,NNE,18,0.0,2.0,73,0.00,,,0.00,,2013-03-24 03:02:00,
2013-03-23 22:12:00,27.0,20.0,30.05,NNE,18,0.0,2.0,73,0.00,,,0.00,,2013-03-24 03:12:00,
2013-03-23 22:22:00,28.0,21.0,30.05,NNE,18,2.0,5.0,74,0.00,,,0.00,,2013-03-24 03:22:00,
2013-03-23 22:33:00,28.0,21.0,30.05,NNE,18,1.0,4.0,74,0.00,,,0.00,,2013-03-24 03:33:00,
2013-03-23 22:42:00,28.0,21.0,30.05,NNE,18,1.0,4.0,74,0.00,,,0.00,,2013-03-24 03:42:00,
2013-03-23 22:53:00,28.0,21.0,30.05,NNE,19,4.0,6.0,75,0.00,,,0.00,,2013-03-24 03:53:00,
2013-03-23 23:02:00,28.0,21.0,30.05,NNE,28,1.0,7.0,75,0.00,,,0.00,,2013-03-24 04:02:00,
2013-03-23 23:12:00,28.0,21.0,30.05,NNE,28,1.0,7.0,75,0.00,,,0.00,,2013-03-24 04:12:00,
2013-03-23 23:22:00,28.0,21.0,30.05,NNE,32,4.0,7.0,75,0.00,,,0.00,,2013-03-24 04:22:00,
2013-03-23 23:32:00,28.0,21.0,30.05,North,9,0.0,5.0,76,0.00,,,0.00,,2013-03-24 04:32:00,
2013-03-23 23:42:00,28.0,21.0,30.05,North,9,0.0,5.0,76,0.00,,,0.00,,2013-03-24 04:42:00,
2013-03-23 23:53:00,28.0,21.0,30.05,NE,34,1.0,4.0,76,0.00,,,0.00,,2013-03-24 04:53:00,